Orange, MA

4:01 AM EDT on October 21, 2017 (GMT -0400)
Orange Municipal

Weather History for KORE - April, 2013

Change the Weather History Date:

Friday, April 19, 2013

  Actual Average Record
Temperature  
Mean Temperature 60 °F -  
Max Temperature 73 °F 57 °F 88 °F (2004)
Min Temperature 50 °F 31 °F 23 °F (2001)
Degree Days  
Heating Degree Days 4    
Growing Degree Days 10 (Base 50)    
Moisture  
Dew Point 54 °F    
Average Humidity 87    
Maximum Humidity 100    
Minimum Humidity 63    
Precipitation  
Precipitation 0.14 in - - ()
Sea Level Pressure  
Sea Level Pressure 29.90 in    
Wind  
Wind Speed 9 mph (South)    
Max Wind Speed 21 mph    
Max Gust Speed 31 mph    
Visibility 7 miles    
Events Rain    
Averages and records for this station are not official NWS values.
T = Trace of Precipitation, MM = Missing Value Source: NWS Daily Summary

Daily Weather History Graph

Daily Weather History Graph

Search for Another Location

Airport or City:

Trip Planner

Search our weather history database for the weather conditions in past years. The results will help you decide how hot, cold, wet, or windy it might be!

Date:

Astronomy

Apr. 19, 2013 Rise Set
Actual Time 6:01 AM EDT 7:35 PM EDT
Civil Twilight 5:31 AM EDT 8:05 PM EDT
Nautical Twilight 4:55 AM EDT 8:41 PM EDT
Astronomical Twilight 4:17 AM EDT 9:20 PM EDT
Moon 1:09 PM EDT (4/19) 2:23 AM EDT (4/19)
Length of Visible Light 14h 34m
Length of Day
13h 34m
First Quarter, 61% of the Moon is Illuminated
Apr 19
First Quarter
Apr 25
Full
May 2
Last Quarter
May 9
New
May 18
First Quarter

Hourly Weather History & Observations

Time (EDT) Temp. Dew Point Humidity Pressure Visibility Wind Dir Wind Speed Gust Speed Precip Events Conditions
12:25 AM 51.8 °F 44.6 °F 76% 30.11 in 10.0 mi South 10.4 mph - N/A   Overcast
12:52 AM 51.1 °F 45.0 °F 80% 30.12 in 10.0 mi SSW 11.5 mph 19.6 mph N/A   Overcast
1:52 AM 50.0 °F 46.9 °F 89% 30.07 in 9.0 mi South 5.8 mph - N/A   Overcast
2:00 AM 50.0 °F 48.2 °F 94% 30.05 in 8.0 mi South 6.9 mph - N/A   Overcast
2:52 AM 50.0 °F 46.9 °F 89% 30.06 in 9.0 mi South 6.9 mph - N/A   Overcast
3:47 AM 50.0 °F 48.2 °F 94% 30.04 in 3.0 mi Calm Calm - N/A   Overcast
3:52 AM 50.0 °F 48.9 °F 96% 30.04 in 2.5 mi Calm Calm - N/A   Overcast
4:20 AM 50.0 °F 48.2 °F 94% 30.03 in 1.5 mi Calm Calm - N/A   Overcast
4:27 AM 50.0 °F 48.2 °F 94% 30.02 in 1.0 mi Calm Calm - N/A   Overcast
4:48 AM 50.0 °F 48.2 °F 94% 30.00 in 1.2 mi SE 4.6 mph - N/A   Overcast
4:52 AM 50.0 °F 48.9 °F 96% 30.01 in 1.5 mi Calm Calm - N/A   Overcast
5:38 AM 51.8 °F 50.0 °F 94% 29.98 in 1.0 mi SSW 3.5 mph - N/A   Overcast
5:52 AM 51.1 °F 50.0 °F 96% 29.99 in 1.2 mi South 8.1 mph - N/A   Overcast
6:06 AM 51.8 °F 51.8 °F 100% 29.99 in 1.5 mi Variable 4.6 mph - N/A   Overcast
6:40 AM 51.8 °F 51.8 °F 100% 29.98 in 1.2 mi South 4.6 mph - N/A   Overcast
6:48 AM 53.6 °F 51.8 °F 94% 29.98 in 1.8 mi South 4.6 mph - N/A   Overcast
6:52 AM 53.1 °F 52.0 °F 96% 29.99 in 2.0 mi SSW 4.6 mph - N/A   Overcast
7:15 AM 53.6 °F 53.6 °F 100% 29.97 in 3.0 mi South 5.8 mph - 0.01 in   Overcast
7:52 AM 55.9 °F 55.0 °F 97% 29.97 in 8.0 mi South 11.5 mph - 0.01 in   Overcast
8:11 AM 57.2 °F 55.4 °F 94% 29.96 in 9.0 mi South 10.4 mph - N/A   Overcast
8:37 AM 57.2 °F 55.4 °F 94% 29.97 in 6.0 mi South 9.2 mph 17.3 mph N/A   Overcast
8:52 AM 59.0 °F 57.0 °F 93% 29.97 in 7.0 mi South 10.4 mph - N/A   Overcast
9:16 AM 59.0 °F 57.2 °F 94% 29.95 in 10.0 mi South 8.1 mph 18.4 mph N/A   Overcast
9:23 AM 59.0 °F 55.4 °F 88% 29.94 in 10.0 mi South 10.4 mph 19.6 mph N/A   Overcast
9:35 AM 59.0 °F 57.2 °F 94% 29.94 in 10.0 mi South 9.2 mph - N/A   Overcast
9:52 AM 60.1 °F 57.0 °F 90% 29.94 in 10.0 mi South 9.2 mph 18.4 mph N/A   Overcast
10:52 AM 61.0 °F 57.0 °F 87% 29.93 in 10.0 mi South 10.4 mph 24.2 mph N/A   Overcast
11:33 AM 62.6 °F 57.2 °F 82% 29.90 in 10.0 mi South 11.5 mph 16.1 mph N/A   Overcast
11:52 AM 64.0 °F 57.0 °F 78% 29.90 in 10.0 mi South 12.7 mph 19.6 mph N/A   Overcast
12:52 PM 66.9 °F 57.0 °F 70% 29.86 in 10.0 mi South 9.2 mph - N/A   Overcast
1:31 PM 69.8 °F 57.2 °F 64% 29.82 in 10.0 mi South 11.5 mph 18.4 mph N/A   Overcast
1:52 PM 69.1 °F 57.0 °F 65% 29.81 in 10.0 mi South 17.3 mph 27.6 mph N/A   Overcast
2:52 PM 70.0 °F 57.0 °F 63% 29.78 in 10.0 mi South 20.7 mph 29.9 mph N/A   Overcast
3:52 PM 71.1 °F 59.0 °F 66% 29.76 in 10.0 mi South 19.6 mph 27.6 mph N/A   Mostly Cloudy
4:02 PM 69.8 °F 59.0 °F 68% 29.74 in 10.0 mi South 16.1 mph 31.1 mph N/A   Mostly Cloudy
4:52 PM 66.0 °F 60.1 °F 81% 29.73 in 10.0 mi South 16.1 mph 25.3 mph N/A   Overcast
5:52 PM 66.0 °F 59.0 °F 78% 29.70 in 10.0 mi South 15.0 mph 27.6 mph N/A   Overcast
6:52 PM 64.9 °F 60.1 °F 84% 29.69 in 10.0 mi South 16.1 mph 23.0 mph N/A   Overcast
7:52 PM 64.9 °F 59.0 °F 81% 29.69 in 10.0 mi South 20.7 mph 31.1 mph N/A   Overcast
8:32 PM 62.6 °F 59.0 °F 88% 29.67 in 10.0 mi South 16.1 mph 28.8 mph N/A   Overcast
8:52 PM 63.0 °F 59.0 °F 87% 29.67 in 10.0 mi South 15.0 mph 28.8 mph N/A   Overcast
9:52 PM 63.0 °F 60.1 °F 90% 29.66 in 10.0 mi South 17.3 mph 25.3 mph 0.00 in   Overcast
10:52 PM 64.0 °F 60.1 °F 87% 29.63 in 10.0 mi South 16.1 mph 26.5 mph 0.02 in   Overcast
11:48 PM 62.6 °F 60.8 °F 94% 29.63 in 3.0 mi South 15.0 mph 23.0 mph 0.10 in Rain Rain
11:52 PM 63.0 °F 61.0 °F 93% 29.64 in 4.0 mi South 13.8 mph 23.0 mph 0.11 in Rain Rain